TimePDT,TemperatureF,Dew PointF,Humidity,Sea Level PressureIn,VisibilityMPH,Wind Direction,Wind SpeedMPH,Gust SpeedMPH,PrecipitationIn,Events,Conditions,WindDirDegrees,DateUTC
12:56 AM,35.1,33.1,92,30.15,10.0,Calm,Calm,-,N/A,,Partly Cloudy,0,2013-04-03 07:56:00
1:56 AM,34.0,32.0,92,30.16,10.0,Calm,Calm,-,N/A,,Scattered Clouds,0,2013-04-03 08:56:00
2:10 AM,33.8,32.0,93,30.14,10.0,Calm,Calm,-,N/A,,Mostly Cloudy,0,2013-04-03 09:10:00
2:40 AM,33.8,32.0,93,30.14,10.0,Calm,Calm,-,N/A,,Overcast,0,2013-04-03 09:40:00
2:56 AM,34.0,32.0,92,30.15,10.0,Calm,Calm,-,N/A,,Overcast,0,2013-04-03 09:56:00
3:56 AM,32.0,30.0,92,30.15,10.0,Calm,Calm,-,N/A,,Scattered Clouds,0,2013-04-03 10:56:00
4:56 AM,33.1,30.9,92,30.14,10.0,Calm,Calm,-,N/A,,Overcast,0,2013-04-03 11:56:00
5:56 AM,32.0,30.0,92,30.14,10.0,Calm,Calm,-,N/A,,Scattered Clouds,0,2013-04-03 12:56:00
6:56 AM,30.0,28.0,92,30.17,8.0,Calm,Calm,-,N/A,,Clear,0,2013-04-03 13:56:00
7:56 AM,35.1,32.0,89,30.18,10.0,Calm,Calm,-,N/A,,Clear,0,2013-04-03 14:56:00
8:56 AM,46.9,37.9,71,30.15,10.0,Calm,Calm,-,N/A,,Clear,0,2013-04-03 15:56:00
9:56 AM,52.0,28.0,40,30.15,10.0,Variable,4.6,-,N/A,,Clear,0,2013-04-03 16:56:00
11:57 AM,57.9,28.9,33,-9999,-9999.0,Variable,6.9,-,N/A,,Unknown,0,2013-04-03 18:57:00
12:56 PM,59.0,30.0,33,-9999,10.0,Calm,Calm,-,N/A,,Clear,0,2013-04-03 19:56:00
1:56 PM,60.1,33.1,36,-9999,10.0,Variable,3.5,-,N/A,,Clear,0,2013-04-03 20:56:00
2:56 PM,60.1,33.1,36,-9999,10.0,Variable,3.5,-,N/A,,Clear,0,2013-04-03 21:56:00
3:56 PM,60.1,33.1,36,-9999,10.0,Variable,3.5,-,N/A,,Clear,0,2013-04-03 22:56:00
4:56 PM,59.0,35.1,41,-9999,10.0,Calm,Calm,-,N/A,,Clear,0,2013-04-03 23:56:00
5:56 PM,57.0,37.9,49,-9999,10.0,North,3.5,-,N/A,,Clear,10,2013-04-04 00:56:00
6:56 PM,53.1,39.0,59,-9999,10.0,Calm,Calm,-,N/A,,Clear,0,2013-04-04 01:56:00
7:56 PM,50.0,39.9,68,-9999,10.0,Calm,Calm,-,N/A,,Clear,0,2013-04-04 02:56:00
8:56 PM,46.0,39.0,76,-9999,10.0,Calm,Calm,-,N/A,,Clear,0,2013-04-04 03:56:00
9:56 PM,43.0,37.9,82,-9999,10.0,Calm,Calm,-,N/A,,Clear,0,2013-04-04 04:56:00
10:56 PM,39.9,36.0,86,-9999,10.0,Calm,Calm,-,N/A,,Clear,0,2013-04-04 05:56:00
11:56 PM,39.0,35.1,86,-9999,10.0,Calm,Calm,-,N/A,,Clear,0,2013-04-04 06:56:00